Time,TemperatureF,DewpointF,PressureIn,WindDirection,WindDirectionDegrees,WindSpeedMPH,WindSpeedGustMPH,Humidity,HourlyPrecipIn,Conditions,Clouds,dailyrainin,SoftwareType,DateUTC
2013-08-19 00:11:00,62.1,58.0,29.87,East,96,0.0,2.0,85,0.00,,,0.00,weatherlink.com 1.10,2013-08-19 07:11:00,
2013-08-19 00:26:00,62.1,58.0,29.87,West,276,0.0,0.0,85,0.00,,,0.00,weatherlink.com 1.10,2013-08-19 07:26:00,
2013-08-19 00:41:00,62.1,58.0,29.87,West,273,0.0,0.0,85,0.00,,,0.00,weatherlink.com 1.10,2013-08-19 07:41:00,
2013-08-19 00:56:00,61.9,57.0,29.88,West,273,0.0,0.0,85,0.00,,,0.00,weatherlink.com 1.10,2013-08-19 07:56:00,
2013-08-19 01:11:00,61.8,57.0,29.87,West,276,0.0,0.0,85,0.00,,,0.00,weatherlink.com 1.10,2013-08-19 08:11:00,
2013-08-19 01:26:00,61.7,58.0,29.88,West,276,0.0,0.0,86,0.00,,,0.00,weatherlink.com 1.10,2013-08-19 08:26:00,
2013-08-19 01:41:00,61.3,57.0,29.87,West,275,0.0,0.0,86,0.00,,,0.00,weatherlink.com 1.10,2013-08-19 08:41:00,
2013-08-19 01:56:00,61.1,57.0,29.87,West,275,0.0,0.0,86,0.00,,,0.00,weatherlink.com 1.10,2013-08-19 08:56:00,
2013-08-19 02:11:00,60.7,57.0,29.86,WSW,253,0.0,2.0,86,0.00,,,0.00,weatherlink.com 1.10,2013-08-19 09:11:00,
2013-08-19 02:27:00,60.0,56.0,29.86,WSW,248,0.0,3.0,87,0.00,,,0.00,weatherlink.com 1.10,2013-08-19 09:27:00,
2013-08-19 02:42:00,59.5,56.0,29.87,West,269,0.0,2.0,88,0.00,,,0.00,weatherlink.com 1.10,2013-08-19 09:42:00,
2013-08-19 02:57:00,59.2,56.0,29.86,West,270,0.0,1.0,89,0.00,,,0.00,weatherlink.com 1.10,2013-08-19 09:57:00,
2013-08-19 03:12:00,59.1,56.0,29.86,West,270,0.0,0.0,89,0.00,,,0.00,weatherlink.com 1.10,2013-08-19 10:12:00,
2013-08-19 03:27:00,59.2,56.0,29.86,West,278,0.0,0.0,89,0.00,,,0.00,weatherlink.com 1.10,2013-08-19 10:27:00,
2013-08-19 03:42:00,59.3,56.0,29.87,West,278,0.0,0.0,90,0.00,,,0.00,weatherlink.com 1.10,2013-08-19 10:42:00,
2013-08-19 03:57:00,59.2,56.0,29.86,West,278,0.0,0.0,90,0.00,,,0.00,weatherlink.com 1.10,2013-08-19 10:57:00,
2013-08-19 04:12:00,59.2,56.0,29.87,West,278,0.0,0.0,90,0.00,,,0.00,weatherlink.com 1.10,2013-08-19 11:12:00,
2013-08-19 04:27:00,58.8,56.0,29.87,West,274,0.0,0.0,90,0.00,,,0.00,weatherlink.com 1.10,2013-08-19 11:27:00,
2013-08-19 04:42:00,58.6,56.0,29.87,West,274,0.0,0.0,90,0.00,,,0.00,weatherlink.com 1.10,2013-08-19 11:42:00,
2013-08-19 04:57:00,58.7,56.0,29.86,West,274,0.0,0.0,91,0.00,,,0.00,weatherlink.com 1.10,2013-08-19 11:57:00,
2013-08-19 05:12:00,58.7,56.0,29.86,West,274,0.0,0.0,91,0.00,,,0.00,weatherlink.com 1.10,2013-08-19 12:12:00,
2013-08-19 05:27:00,58.6,56.0,29.86,West,273,0.0,0.0,91,0.00,,,0.00,weatherlink.com 1.10,2013-08-19 12:27:00,
2013-08-19 05:42:00,58.6,56.0,29.87,West,273,0.0,0.0,91,0.00,,,0.00,weatherlink.com 1.10,2013-08-19 12:42:00,
2013-08-19 05:57:00,58.6,56.0,29.87,West,280,0.0,1.0,91,0.00,,,0.00,weatherlink.com 1.10,2013-08-19 12:57:00,
2013-08-19 06:12:00,58.6,56.0,29.88,West,279,0.0,0.0,92,0.00,,,0.00,weatherlink.com 1.10,2013-08-19 13:12:00,
2013-08-19 06:27:00,58.5,56.0,29.89,WSW,242,0.0,2.0,92,0.00,,,0.00,weatherlink.com 1.10,2013-08-19 13:27:00,
2013-08-19 06:42:00,58.1,56.0,29.90,WNW,285,1.0,4.0,92,0.00,,,0.00,weatherlink.com 1.10,2013-08-19 13:42:00,
2013-08-19 06:57:00,58.0,56.0,29.90,WNW,297,1.0,3.0,93,0.00,,,0.00,weatherlink.com 1.10,2013-08-19 13:57:00,
2013-08-19 07:12:00,58.1,56.0,29.90,WSW,239,0.0,2.0,93,0.00,,,0.00,weatherlink.com 1.10,2013-08-19 14:12:00,
2013-08-19 07:27:00,58.3,57.0,29.91,WSW,257,1.0,2.0,94,0.00,,,0.00,weatherlink.com 1.10,2013-08-19 14:27:00,
2013-08-19 07:42:00,58.7,57.0,29.91,West,262,0.0,1.0,94,0.00,,,0.00,weatherlink.com 1.10,2013-08-19 14:42:00,
2013-08-19 07:57:00,59.1,57.0,29.91,WNW,283,0.0,2.0,94,0.00,,,0.00,weatherlink.com 1.10,2013-08-19 14:57:00,
2013-08-19 08:12:00,59.3,58.0,29.92,WNW,285,1.0,3.0,94,0.00,,,0.00,weatherlink.com 1.10,2013-08-19 15:12:00,
2013-08-19 08:27:00,60.1,58.0,29.92,WSW,256,2.0,3.0,94,0.00,,,0.00,weatherlink.com 1.10,2013-08-19 15:27:00,
2013-08-19 08:42:00,61.4,59.0,29.91,WSW,238,0.0,3.0,93,0.00,,,0.00,weatherlink.com 1.10,2013-08-19 15:42:00,
2013-08-19 08:57:00,63.6,61.0,29.91,NNE,12,0.0,1.0,90,0.00,,,0.00,weatherlink.com 1.10,2013-08-19 15:57:00,
2013-08-19 09:12:00,64.7,61.0,29.91,West,277,2.0,4.0,86,0.00,,,0.00,weatherlink.com 1.10,2013-08-19 16:12:00,
2013-08-19 09:27:00,65.2,60.0,29.92,West,278,2.0,5.0,83,0.00,,,0.00,weatherlink.com 1.10,2013-08-19 16:27:00,
2013-08-19 09:42:00,66.0,60.0,29.92,WSW,255,4.0,5.0,82,0.00,,,0.00,weatherlink.com 1.10,2013-08-19 16:42:00,
2013-08-19 09:57:00,66.2,60.0,29.92,WNW,302,3.0,6.0,80,0.00,,,0.00,weatherlink.com 1.10,2013-08-19 16:57:00,
2013-08-19 10:12:00,67.4,61.0,29.93,West,281,2.0,5.0,79,0.00,,,0.00,weatherlink.com 1.10,2013-08-19 17:12:00,
2013-08-19 10:27:00,67.9,61.0,29.93,WSW,243,4.0,4.0,78,0.00,,,0.00,weatherlink.com 1.10,2013-08-19 17:27:00,
2013-08-19 10:43:00,69.2,61.0,29.93,WNW,302,3.0,6.0,75,0.00,,,0.00,weatherlink.com 1.10,2013-08-19 17:43:00,
2013-08-19 10:58:00,71.1,62.0,29.92,WNW,295,5.0,5.0,74,0.00,,,0.00,weatherlink.com 1.10,2013-08-19 17:58:00,
2013-08-19 11:13:00,72.3,63.0,29.92,West,259,1.0,6.0,72,0.00,,,0.00,weatherlink.com 1.10,2013-08-19 18:13:00,
2013-08-19 11:28:00,73.5,63.0,29.92,NW,311,5.0,5.0,69,0.00,,,0.00,weatherlink.com 1.10,2013-08-19 18:28:00,
2013-08-19 11:43:00,73.5,63.0,29.92,SE,142,1.0,6.0,70,0.00,,,0.00,weatherlink.com 1.10,2013-08-19 18:43:00,
2013-08-19 11:58:00,74.7,64.0,29.91,SW,232,4.0,7.0,69,0.00,,,0.00,weatherlink.com 1.10,2013-08-19 18:58:00,
2013-08-19 12:13:00,75.1,64.0,29.91,WSW,244,2.0,7.0,68,0.00,,,0.00,weatherlink.com 1.10,2013-08-19 19:13:00,
2013-08-19 12:28:00,75.7,64.0,29.91,West,266,3.0,8.0,68,0.00,,,0.00,weatherlink.com 1.10,2013-08-19 19:28:00,
2013-08-19 12:43:00,76.5,64.0,29.91,WNW,285,7.0,8.0,65,0.00,,,0.00,weatherlink.com 1.10,2013-08-19 19:43:00,
2013-08-19 12:58:00,76.9,64.0,29.91,West,259,2.0,9.0,65,0.00,,,0.00,weatherlink.com 1.10,2013-08-19 19:58:00,
2013-08-19 13:13:00,78.1,64.0,29.90,WNW,290,3.0,7.0,62,0.00,,,0.00,weatherlink.com 1.10,2013-08-19 20:13:00,
2013-08-19 13:28:00,78.6,64.0,29.89,NW,308,4.0,7.0,62,0.00,,,0.00,weatherlink.com 1.10,2013-08-19 20:28:00,
2013-08-19 13:43:00,79.2,65.0,29.89,WSW,248,4.0,8.0,61,0.00,,,0.00,weatherlink.com 1.10,2013-08-19 20:43:00,
2013-08-19 13:58:00,79.2,64.0,29.89,SW,231,5.0,8.0,60,0.00,,,0.00,weatherlink.com 1.10,2013-08-19 20:58:00,
2013-08-19 14:13:00,79.9,65.0,29.88,West,269,5.0,7.0,60,0.00,,,0.00,weatherlink.com 1.10,2013-08-19 21:13:00,
2013-08-19 14:28:00,80.9,65.0,29.88,NW,304,0.0,7.0,59,0.00,,,0.00,weatherlink.com 1.10,2013-08-19 21:28:00,
2013-08-19 14:43:00,80.9,65.0,29.87,West,276,8.0,9.0,59,0.00,,,0.00,weatherlink.com 1.10,2013-08-19 21:43:00,
2013-08-19 14:58:00,79.8,65.0,29.86,WNW,285,3.0,12.0,60,0.00,,,0.00,weatherlink.com 1.10,2013-08-19 21:58:00,
2013-08-19 15:13:00,80.3,65.0,29.86,WSW,252,5.0,9.0,60,0.00,,,0.00,weatherlink.com 1.10,2013-08-19 22:13:00,
2013-08-19 15:28:00,80.3,64.0,29.85,SW,229,8.0,10.0,58,0.00,,,0.00,weatherlink.com 1.10,2013-08-19 22:28:00,
2013-08-19 15:43:00,79.7,64.0,29.85,WNW,302,4.0,9.0,60,0.00,,,0.00,weatherlink.com 1.10,2013-08-19 22:43:00,
2013-08-19 15:58:00,79.4,65.0,29.85,West,266,6.0,10.0,61,0.00,,,0.00,weatherlink.com 1.10,2013-08-19 22:58:00,
2013-08-19 16:13:00,78.9,64.0,29.85,WNW,295,6.0,9.0,61,0.00,,,0.00,weatherlink.com 1.10,2013-08-19 23:13:00,
2013-08-19 16:28:00,78.4,64.0,29.85,WNW,295,8.0,9.0,62,0.00,,,0.00,weatherlink.com 1.10,2013-08-19 23:28:00,
2013-08-19 16:43:00,77.5,63.0,29.84,WNW,302,3.0,9.0,62,0.00,,,0.00,weatherlink.com 1.10,2013-08-19 23:43:00,
2013-08-19 16:58:00,76.9,64.0,29.84,WSW,256,6.0,9.0,64,0.00,,,0.00,weatherlink.com 1.10,2013-08-19 23:58:00,
2013-08-19 17:13:00,76.5,63.0,29.85,West,279,2.0,9.0,63,0.00,,,0.00,weatherlink.com 1.10,2013-08-20 00:13:00,
2013-08-19 17:28:00,76.4,63.0,29.85,West,281,3.0,8.0,64,0.00,,,0.00,weatherlink.com 1.10,2013-08-20 00:28:00,
2013-08-19 17:43:00,76.4,63.0,29.85,West,261,2.0,7.0,63,0.00,,,0.00,weatherlink.com 1.10,2013-08-20 00:43:00,
2013-08-19 17:58:00,76.4,63.0,29.84,WSW,257,1.0,7.0,63,0.00,,,0.00,weatherlink.com 1.10,2013-08-20 00:58:00,
2013-08-19 18:14:00,76.3,63.0,29.84,WSW,257,3.0,5.0,63,0.00,,,0.00,weatherlink.com 1.10,2013-08-20 01:14:00,
2013-08-19 18:29:00,75.8,62.0,29.84,NW,314,3.0,6.0,63,0.00,,,0.00,weatherlink.com 1.10,2013-08-20 01:29:00,
2013-08-19 18:44:00,75.1,62.0,29.84,WNW,287,3.0,6.0,64,0.00,,,0.00,weatherlink.com 1.10,2013-08-20 01:44:00,
2013-08-19 18:59:00,73.3,61.0,29.84,NW,314,0.0,8.0,66,0.00,,,0.00,weatherlink.com 1.10,2013-08-20 01:59:00,
2013-08-19 19:14:00,72.2,61.0,29.85,WNW,302,1.0,7.0,69,0.00,,,0.00,weatherlink.com 1.10,2013-08-20 02:14:00,
2013-08-19 19:29:00,71.3,61.0,29.86,West,276,0.0,4.0,70,0.00,,,0.00,weatherlink.com 1.10,2013-08-20 02:29:00,
2013-08-19 19:44:00,70.3,61.0,29.86,South,184,0.0,2.0,72,0.00,,,0.00,weatherlink.com 1.10,2013-08-20 02:44:00,
2013-08-19 19:59:00,69.7,61.0,29.86,WSW,242,0.0,0.0,73,0.00,,,0.00,weatherlink.com 1.10,2013-08-20 02:59:00,
2013-08-19 20:17:00,69.2,61.0,29.86,WSW,245,0.0,0.0,74,0.00,,,0.00,weatherlink.com 1.10,2013-08-20 03:17:00,
2013-08-19 20:29:00,68.2,60.0,29.86,WSW,248,1.0,1.0,75,0.00,,,0.00,weatherlink.com 1.10,2013-08-20 03:29:00,
2013-08-19 20:44:00,67.8,60.0,29.87,West,276,1.0,2.0,76,0.00,,,0.00,weatherlink.com 1.10,2013-08-20 03:44:00,
2013-08-19 20:59:00,67.0,60.0,29.87,WSW,257,1.0,2.0,78,0.00,,,0.00,weatherlink.com 1.10,2013-08-20 03:59:00,
2013-08-19 21:14:00,65.8,60.0,29.88,WSW,250,2.0,2.0,80,0.00,,,0.00,weatherlink.com 1.10,2013-08-20 04:14:00,
2013-08-19 21:29:00,64.6,59.0,29.89,WSW,244,0.0,3.0,83,0.00,,,0.00,weatherlink.com 1.10,2013-08-20 04:29:00,
2013-08-19 21:44:00,63.7,59.0,29.89,West,276,0.0,3.0,84,0.00,,,0.00,weatherlink.com 1.10,2013-08-20 04:44:00,
2013-08-19 21:59:00,63.1,59.0,29.89,SSW,200,0.0,0.0,86,0.00,,,0.00,weatherlink.com 1.10,2013-08-20 04:59:00,
2013-08-19 22:14:00,62.9,59.0,29.89,SSW,200,0.0,0.0,86,0.00,,,0.00,weatherlink.com 1.10,2013-08-20 05:14:00,
2013-08-19 22:29:00,62.7,59.0,29.89,SSW,200,0.0,0.0,87,0.00,,,0.00,weatherlink.com 1.10,2013-08-20 05:29:00,
2013-08-19 22:44:00,62.4,59.0,29.89,SSW,200,0.0,0.0,87,0.00,,,0.00,weatherlink.com 1.10,2013-08-20 05:44:00,
2013-08-19 22:59:00,62.0,58.0,29.89,SSW,200,0.0,0.0,87,0.00,,,0.00,weatherlink.com 1.10,2013-08-20 05:59:00,
2013-08-19 23:14:00,61.7,58.0,29.89,West,269,0.0,0.0,88,0.00,,,0.00,weatherlink.com 1.10,2013-08-20 06:14:00,
2013-08-19 23:29:00,61.2,58.0,29.89,South,187,0.0,0.0,88,0.00,,,0.00,weatherlink.com 1.10,2013-08-20 06:29:00,
2013-08-19 23:44:00,60.9,58.0,29.90,South,188,0.0,0.0,89,0.00,,,0.00,weatherlink.com 1.10,2013-08-20 06:44:00,
2013-08-19 23:59:00,60.4,57.0,29.90,South,188,0.0,0.0,89,0.00,,,0.00,weatherlink.com 1.10,2013-08-20 06:59:00,